LKMT Weather Reports


Display with metric or nautical units.
time (UTC)temp
F
wind
direction
speed
MPH
gust
MPH
rain 1hr
in
rain 24hr
in
rain mn
in
humidity
%
barometer
mb
20260831143231 77 220 13.0 0.0 0.00 0.00 0.00 57 1015.0
20260831142256 75 220 14.0 0.0 0.00 0.00 0.00 57
20260831140233 79 230 12.0 0.0 0.00 0.00 0.00 50 1015.0
20260831133231 79 230 12.0 0.0 0.00 0.00 0.00 50 1015.0
20260831132255 75 240 16.0 0.0 0.00 0.00 0.00 57
20260831130236 75 240 16.0 0.0 0.00 0.00 0.00 53 1015.0
20260831123231 75 250 15.0 0.0 0.00 0.00 0.00 57 1015.0
20260831122213 75 260 18.0 0.0 0.00 0.00 0.00 60
20260831120233 75 260 17.0 0.0 0.00 0.00 0.00 60 1015.0
20260831115804 75 260 18.0 0.0 0.00 0.00 0.00 60 1015.0
20260831113230 77 250 17.0 0.0 0.00 0.00 0.00 53 1014.0
20260831112256 79 240 18.0 0.0 0.00 0.00 0.00 54
20260831110238 79 230 17.0 0.0 0.00 0.00 0.00 50 1014.0
20260831105204 79 230 14.0 0.0 0.00 0.00 0.00 54 1014.0
20260831103230 75 240 9.0 0.0 0.00 0.00 0.00 57 1014.0
20260831102458 75 250 7.0 0.0 0.00 0.00 0.00 57
20260831100235 75 250 7.0 0.0 0.00 0.00 0.00 57 1014.0
20260831095805 77 250 7.0 0.0 0.00 0.00 0.00 53 1014.0
20260831093230 73 260 5.0 0.0 0.00 0.00 0.00 64 1014.0
20260831092244 73 270 5.0 0.0 0.00 0.00 0.00 69
20260831090234 73 270 5.0 0.0 0.00 0.00 0.00 64 1014.0
20260831083231 73 270 3.0 0.0 0.00 0.00 0.00 64 1014.0
20260831082416 73 0 2.0 0.0 0.00 0.00 0.00 60
20260831080246 72 0 0.0 0.0 0.00 0.00 0.00 64 1014.0
20260831073231 70 0 2.0 0.0 0.00 0.00 0.00 68 1014.0
20260831072904 70 0 2.0 0.0 0.00 0.00 0.00 68 1014.0
20260831072400 68 200 2.0 0.0 0.00 0.00 0.00 68
20260831070234 66 210 3.0 0.0 0.00 0.00 0.00 72 1015.0
20260831063238 64 250 5.0 0.0 0.00 0.00 0.00 77 1015.0
20260831062259 63 210 5.0 0.0 0.00 0.00 0.00 82
20260831060240 63 220 5.0 0.0 0.00 0.00 0.00 82 1015.0
20260831053224 64 210 5.0 0.0 0.00 0.00 0.00 77 1015.0
20260831052412 63 0 2.0 0.0 0.00 0.00 0.00 82
20260831050239 63 0 1.0 0.0 0.00 0.00 0.00 82 1015.0
20260831043230 61 0 1.0 0.0 0.00 0.00 0.00 82 1015.0
20260831042457 63 190 2.0 0.0 0.00 0.00 0.00 77
20260831040235 61 190 3.0 0.0 0.00 0.00 0.00 82 1015.0
20260831033231 59 260 3.0 0.0 0.00 0.00 0.00 87 1015.0
20260831032156 59 260 5.0 0.0 0.00 0.00 0.00 82
20260831030234 59 0 2.0 0.0 0.00 0.00 0.00 82 1015.0
20260831023223 59 220 5.0 0.0 0.00 0.00 0.00 87 1015.0
20260831022255 59 230 5.0 0.0 0.00 0.00 0.00 82
20260831020230 61 230 5.0 0.0 0.00 0.00 0.00 82 1015.0
20260831013224 61 230 6.0 0.0 0.00 0.00 0.00 82 1015.0
20260831012256 61 230 5.0 0.0 0.00 0.00 0.00 82
20260831010231 61 230 6.0 0.0 0.00 0.00 0.00 82 1015.0
20260831003224 63 230 3.0 0.0 0.00 0.00 0.00 77 1016.0
20260831002155 61 230 5.0 0.0 0.00 0.00 0.00 82
20260831000233 63 240 3.0 0.0 0.00 0.00 0.00 82 1016.0
20260830233224 64 220 5.0 0.0 0.00 0.00 0.00 72 1016.0
20260830232356 64 210 5.0 0.0 0.00 0.00 0.00 72
20260830230233 64 210 6.0 0.0 0.00 0.00 0.00 72 1016.0
20260830223223 68 160 3.0 0.0 0.00 0.00 0.00 68 1016.0
20260830222358 68 150 2.0 0.0 0.00 0.00 0.00 68
20260830220235 68 140 2.0 0.0 0.00 0.00 0.00 68 1015.0
20260830213224 66 250 3.0 0.0 0.00 0.00 0.00 72 1016.0
20260830212157 70 180 5.0 0.0 0.00 0.00 0.00 64
20260830210232 70 180 3.0 0.0 0.00 0.00 0.00 64 1015.0
20260830203224 66 0 2.0 0.0 0.00 0.00 0.00 82 1015.0
20260830202355 68 0 0.0 0.0 0.00 0.00 0.00 64
20260830200240 68 0 2.0 0.0 0.00 0.00 0.00 64 1015.0
20260830193224 68 250 3.0 0.0 0.00 0.00 0.00 64 1015.0
20260830192256 72 0 2.0 0.0 0.00 0.00 0.00 56
20260830190240 72 170 3.0 0.0 0.00 0.00 0.00 53 1015.0
20260830183230 73 150 6.0 0.0 0.00 0.00 0.00 49 1015.0
20260830182158 73 160 5.0 0.0 0.00 0.00 0.00 53
20260830180233 75 160 5.0 0.0 0.00 0.00 0.00 50 1015.0
20260830173231 77 170 5.0 0.0 0.00 0.00 0.00 44 1014.0
20260830172355 79 170 5.0 0.0 0.00 0.00 0.00 41
20260830170233 79 170 6.0 0.0 0.00 0.00 0.00 41 1014.0
20260830163231 79 210 9.0 0.0 0.00 0.00 0.00 41 1014.0
20260830162258 81 220 14.0 0.0 0.00 0.00 0.00 39
20260830160232 81 230 12.0 0.0 0.00 0.00 0.00 39 1015.0
20260830153231 82 220 13.0 0.0 0.00 0.00 0.00 37 1015.0
20260830152156 82 220 12.0 0.0 0.00 0.00 0.00 37
20260830150239 82 220 13.0 0.0 0.00 0.00 0.00 37 1015.0